Theta_e
310 307 308 307 307 308 308 307 305 305 305 306 307 309 310 309 307 308 308 307 308 310 309 309 310 311 312 312 314 311 312 313 316 320 321 323 325 323 324 322 322 323 332 335 333 339 335 341 344 348 347 344 343 344
310 308 308 307 307 307 310 305 305 306 305 305 306 308 310 308 308 308 308 307 307 309 309 306 308 309 310 310 311 310 312 313 314 316 316 317 320 323 330 325 331 329 324 328 335 336 342 337 341 338 340 343 343 343
309 309 308 307 307 309 307 305 306 306 306 306 306 307 310 308 308 308 307 306 307 308 308 307 310 309 308 309 309 310 312 312 312 311 314 316 318 318 327 332 326 328 331 337 334 336 334 331 338 335 335 341 340 341
308 308 308 307 308 309 305 306 306 306 306 306 306 306 309 308 307 308 307 307 307 308 309 310 307 309 309 309 308 308 310 309 309 311 314 315 316 315 321 321 321 323 324 336 339 336 330 338 330 330 335 340 339 340
308 308 307 307 309 306 306 306 306 306 306 306 306 306 308 308 307 308 308 309 307 309 312 311 309 309 308 308 309 309 310 311 312 313 313 314 314 314 315 316 318 319 327 337 339 326 324 326 324 330 339 339 338 339
309 308 307 308 308 305 306 306 306 306 306 306 306 305 307 307 307 307 310 309 309 308 311 312 309 309 308 308 309 309 310 311 311 312 313 313 313 314 315 316 317 319 326 326 324 320 320 322 328 337 338 337 336 336
308 307 308 308 305 306 306 306 306 306 307 307 307 305 307 307 307 307 309 310 309 309 311 311 312 309 307 310 311 310 307 309 311 312 312 313 313 313 315 317 315 318 318 320 318 318 321 321 325 332 336 335 335 334
307 308 308 305 305 306 306 306 306 308 309 308 307 305 306 307 307 308 310 309 308 308 310 313 313 312 310 314 316 311 313 309 309 311 312 314 313 313 316 315 315 317 317 318 318 317 318 322 331 335 334 335 337 338
308 308 307 305 306 306 306 306 308 308 308 307 306 307 308 308 309 310 310 310 308 310 312 311 313 316 312 313 311 312 312 314 313 313 314 314 315 316 314 314 314 315 316 316 317 318 320 323 331 335 334 335 337 338
308 306 305 306 306 306 306 307 307 307 308 307 309 309 313 312 311 310 310 311 311 311 311 312 312 313 313 312 310 309 313 317 319 317 314 314 316 315 314 314 314 314 315 317 318 317 320 328 331 333 334 335 336 339
306 305 306 306 306 306 306 308 308 307 310 310 310 313 309 311 311 310 312 313 313 314 313 313 313 314 312 311 310 309 314 317 320 319 317 317 316 315 316 316 315 314 315 315 316 318 319 321 325 331 333 331 331 335
305 306 306 306 306 306 307 308 307 307 309 308 308 309 309 312 314 313 314 315 315 316 315 315 316 314 312 309 310 311 315 318 321 316 319 320 319 317 315 314 317 315 314 314 314 315 316 317 322 329 330 331 330 330
306 306 306 306 306 307 307 308 306 306 307 307 310 313 312 312 316 317 319 318 319 318 316 316 318 317 312 311 312 313 315 318 317 313 315 317 315 315 313 313 313 315 316 314 314 314 314 317 321 329 332 330 333 334
306 307 307 306 306 307 308 307 306 306 307 313 314 309 313 315 317 318 319 319 317 317 317 316 317 318 312 313 312 315 316 315 317 317 315 315 315 316 320 323 323 325 322 319 317 315 316 320 328 329 330 332 333 333
307 307 306 307 308 308 307 307 306 307 309 314 313 316 315 315 316 316 315 315 315 314 315 314 316 318 316 315 313 314 318 318 316 314 308 313 317 324 326 321 322 323 323 321 318 318 323 326 330 331 331 331 331 332
306 306 308 308 308 307 307 307 307 309 310 313 314 315 315 316 317 315 315 315 314 314 313 313 318 320 322 321 321 320 316 315 311 313 316 316 316 319 323 324 325 325 328 330 329 327 327 328 330 330 331 332 333 335
305 306 308 307 307 308 307 308 311 312 314 315 316 313 314 315 316 315 315 315 313 313 318 319 323 322 322 321 320 317 318 316 315 315 313 313 313 313 317 319 319 321 323 324 326 327 329 330 330 332 334 332 332 333
306 306 306 307 307 308 309 309 311 314 317 313 316 315 314 314 316 315 314 312 311 313 317 319 318 319 319 320 319 317 316 316 317 316 314 313 312 312 312 313 313 314 315 316 319 321 323 324 325 326 328 330 332 333
307 307 306 308 308 310 313 313 313 316 317 315 314 314 314 315 314 314 313 312 311 312 315 317 317 318 319 317 317 318 318 318 317 316 316 314 313 312 312 311 309 311 311 312 313 314 315 317 319 322 326 327 331 330
307 308 308 309 310 312 314 313 311 315 316 314 312 314 314 316 315 315 315 315 315 315 316 317 316 316 316 315 315 316 316 316 317 317 314 312 310 310 311 311 310 308 308 309 309 309 312 313 314 316 318 322 326 326
308 309 310 309 309 309 312 312 313 312 312 314 311 311 315 316 319 317 315 315 315 316 316 315 315 314 314 314 313 313 315 317 319 318 315 311 308 308 307 307 307 307 307 307 309 309 310 310 311 313 315 317 318 321
308 309 310 310 308 308 310 308 311 309 312 313 314 313 317 319 319 317 312 317 318 318 317 317 317 317 316 316 314 314 315 313 311 308 306 305 306 306 307 306 306 307 306 307 307 308 309 310 310 312 315 316 317 317
308 310 308 307 310 307 310 307 312 312 316 316 315 318 318 318 316 312 316 314 316 314 314 314 313 312 312 312 312 312 313 312 309 307 305 304 304 304 305 305 304 304 305 305 305 307 309 309 311 313 314 315 316 317
309 310 311 311 310 312 311 314 311 313 314 316 318 320 320 319 314 316 316 316 316 312 313 312 310 314 313 312 313 312 312 310 306 305 304 303 303 303 303 303 303 303 302 303 305 307 308 310 310 311 311 312 312 312
310 311 311 309 312 313 315 315 315 315 319 318 319 320 320 316 321 318 317 317 317 316 314 312 312 312 313 312 311 309 308 306 306 307 304 302 302 302 303 303 303 302 301 303 305 306 308 310 310 310 309 309 310 310
312 314 311 315 315 315 317 320 319 320 319 322 321 319 320 321 321 320 317 315 316 314 312 311 311 310 310 307 309 308 307 306 305 306 305 303 301 302 302 303 304 302 301 302 303 305 308 309 309 308 308 308 307 308
314 317 315 311 314 314 318 319 319 321 324 324 325 324 323 324 321 318 316 314 315 313 310 308 308 308 307 305 305 304 304 304 304 303 303 302 301 300 300 301 302 301 300 301 302 303 306 309 308 307 306 306 306 305
316 317 320 318 316 317 324 326 325 324 324 322 326 325 324 323 321 318 317 314 310 307 306 305 304 304 304 303 303 303 303 302 302 302 302 302 302 301 301 301 301 300 300 300 300 301 301 303 305 305 305 306 306 305
315 317 317 322 322 322 323 325 323 319 318 320 322 321 319 317 317 315 311 309 307 306 306 306 305 303 304 304 302 302 302 302 303 304 303 303 303 302 301 301 301 301 301 301 300 300 299 300 300 300 301 301 302 304
316 315 319 324 327 327 323 320 319 317 318 317 316 316 317 314 310 307 306 306 306 306 306 305 304 304 305 305 305 303 302 302 301 301 303 303 303 301 301 301 301 301 300 300 301 301 300 300 300 301 300 300 300 301
319 319 323 325 326 323 320 319 318 318 318 318 316 315 312 311 309 307 306 305 305 305 305 305 305 305 304 304 304 303 303 303 301 301 301 301 301 301 301 301 301 300 300 300 300 300 300 300 300 300 300 300 300 299
324 325 327 327 325 323 322 322 321 320 319 320 318 316 316 313 313 311 307 305 305 306 304 304 304 304 303 303 303 302 301 301 301 300 300 300 301 301 300 300 300 300 300 300 300 300 300 300 300 300 300 300 299 299
326 326 325 325 324 324 322 322 322 320 320 321 321 319 317 317 318 311 305 305 305 305 305 304 303 303 302 302 302 301 301 301 301 300 300 300 300 301 301 301 301 301 301 301 301 300 300 300 300 299 299 299 299 298
Wind_Speed
12 10 12 9 9 10 11 12 13 14 14 14 14 13 14 13 14 11 2 8 4 2 4 4 3 4 2 2 1 2 2 1 1 2 3 1 3 2 5 8 6 7 6 6 9 9 14 11 6 5 6 5 10 12
10 8 9 9 9 9 10 11 12 14 14 14 13 12 11 11 12 11 3 9 9 4 3 3 7 11 8 3 2 0 2 1 1 1 1 2 3 3 3 7 3 7 5 3 4 2 3 4 6 5 8 11 11 14
10 8 8 7 8 8 10 11 12 13 14 14 12 12 9 9 9 8 5 7 5 2 4 3 2 1 13 22 15 3 2 2 2 1 1 2 5 2 3 4 5 2 3 4 3 3 4 7 3 8 13 11 13 12
8 6 7 7 8 8 8 10 12 13 14 14 12 10 8 8 9 8 3 4 3 1 2 1 2 5 4 5 12 20 10 2 1 1 3 4 4 3 2 4 4 4 7 3 6 4 8 10 10 13 16 12 14 13
9 6 6 6 7 7 8 10 13 14 15 15 13 9 8 8 11 8 6 2 5 1 3 5 15 3 3 5 14 15 18 11 6 4 6 6 4 4 7 5 9 5 5 4 2 4 4 9 13 16 10 12 13 14
7 6 5 6 7 7 9 11 14 16 17 16 12 8 6 7 11 2 2 4 1 3 2 3 3 4 4 7 9 13 15 8 6 4 5 6 7 5 5 8 14 11 8 7 2 9 10 17 14 7 12 12 12 10
5 5 5 6 6 8 10 13 16 18 16 12 10 6 4 7 6 1 1 2 4 2 1 4 4 1 3 3 2 2 6 4 6 4 6 9 6 8 12 15 17 8 7 10 9 13 12 8 11 13 9 12 12 10
6 5 5 5 7 9 12 15 18 16 12 9 7 5 6 8 6 1 2 2 10 3 2 2 4 4 4 2 3 1 2 3 4 4 3 7 6 9 13 23 20 20 20 18 18 13 16 16 14 10 7 6 10 7
6 5 5 6 8 11 13 16 15 12 7 6 3 3 0 1 0 0 2 2 5 2 1 1 2 3 1 2 2 2 1 3 3 4 9 5 9 11 11 16 17 17 18 20 13 10 12 13 14 11 9 6 6 6
4 3 4 6 9 12 14 13 12 8 6 1 1 0 2 1 0 3 0 1 1 0 1 3 2 4 3 1 1 3 3 3 3 6 2 7 14 24 21 17 15 19 20 16 13 14 9 10 10 10 7 6 7 7
3 3 4 7 10 12 13 9 9 6 2 2 2 1 1 3 1 1 1 1 1 2 3 3 5 4 2 2 3 2 3 3 3 1 3 4 4 5 10 20 20 16 15 17 15 10 7 9 9 6 5 7 7 7
2 3 5 8 10 12 10 9 7 3 1 2 3 3 1 1 1 1 1 1 2 3 2 3 4 4 1 2 1 3 3 3 5 0 3 3 3 7 13 16 14 19 21 19 10 10 10 11 6 9 9 10 9 9
3 5 7 8 10 10 7 4 3 3 3 1 1 0 2 0 1 2 4 2 3 2 3 5 7 1 1 1 3 3 4 5 5 2 3 4 6 7 13 16 20 20 19 20 17 11 11 12 12 10 8 7 12 10
4 6 8 10 6 5 3 2 2 3 1 0 1 3 1 1 1 1 3 5 5 4 10 9 5 1 1 1 2 4 4 4 3 3 3 9 17 19 16 7 12 13 12 12 12 12 11 11 8 11 8 9 9 11
6 9 10 2 2 5 5 1 1 2 0 0 1 1 1 2 3 4 3 6 6 6 6 6 3 2 2 2 2 4 5 4 4 3 4 12 18 10 12 12 10 9 11 12 11 11 10 8 5 6 4 7 8 8
9 8 3 2 6 7 3 1 1 1 1 1 2 1 2 4 5 4 6 7 4 6 5 2 2 3 1 2 1 4 7 4 4 7 10 12 16 16 14 12 13 12 12 10 8 8 6 2 1 0 2 6 8 5
8 1 2 7 7 2 2 2 1 2 1 2 1 1 1 2 4 5 5 4 6 4 2 2 4 4 4 3 4 5 6 6 7 8 9 14 15 16 15 16 16 12 13 13 14 13 9 8 6 6 7 9 8 7
2 4 6 3 2 3 2 1 1 1 1 1 1 2 1 2 4 4 4 3 2 3 3 3 2 5 4 4 3 2 3 6 6 5 6 9 13 12 15 14 18 19 17 18 14 12 13 14 10 8 10 10 9 9
5 4 2 3 2 0 1 1 1 1 1 1 2 1 2 3 3 4 3 3 1 1 2 2 3 3 3 2 2 5 6 6 4 4 3 7 10 12 15 18 17 15 16 15 16 12 11 11 9 10 10 9 8 10
3 5 4 2 1 0 1 1 1 1 1 2 2 3 3 2 4 3 5 4 3 2 4 3 2 2 2 3 4 5 5 6 5 5 6 7 13 12 14 13 11 13 14 15 16 18 15 13 13 13 12 10 10 11
2 1 2 2 2 2 1 1 0 1 2 2 1 3 2 2 2 3 4 5 3 2 1 2 2 3 7 11 11 8 8 6 4 3 4 5 11 12 13 15 13 13 13 12 8 11 12 10 12 12 10 9 8 7
2 1 0 2 1 2 1 1 1 1 2 2 2 2 2 1 2 2 3 2 1 1 2 2 3 5 7 7 10 9 7 3 3 5 6 9 7 7 8 10 12 10 12 12 13 12 12 12 12 9 8 7 7 6
2 0 0 2 0 2 0 1 1 1 2 1 2 2 2 2 1 1 1 1 2 2 3 4 8 8 9 10 9 5 3 2 4 6 7 7 7 10 10 10 10 10 10 12 13 11 11 11 10 10 9 10 9 9
1 0 0 0 1 1 0 1 1 1 1 2 2 2 2 2 2 1 1 1 1 3 2 5 5 3 2 2 2 4 4 1 3 5 7 10 10 10 8 7 9 11 12 13 13 13 10 10 11 12 12 12 13 13
0 1 1 2 2 1 2 2 2 2 2 3 2 3 2 2 2 2 1 1 2 2 3 3 1 1 2 3 3 5 5 2 3 3 6 8 9 10 11 10 9 9 13 14 15 15 10 9 9 10 12 13 13 13
1 3 4 4 2 3 3 2 4 4 3 3 4 1 2 2 3 2 1 0 1 1 2 2 3 4 3 4 4 5 5 4 4 4 4 5 6 7 7 6 6 11 13 11 12 13 9 7 7 8 8 9 11 10
2 4 3 2 2 2 3 4 2 2 3 4 2 4 3 1 2 1 2 4 2 1 1 1 2 3 3 5 3 4 4 5 4 5 4 4 2 3 6 8 8 9 11 11 12 11 11 7 6 6 6 6 7 8
3 2 4 3 3 3 3 3 2 2 2 3 2 0 1 2 3 2 3 1 2 3 2 2 3 3 3 3 4 5 5 8 8 7 4 2 4 1 6 8 8 8 8 8 9 10 10 9 8 8 8 7 6 4
3 2 2 4 4 4 4 2 0 1 1 2 2 3 4 2 1 1 1 2 5 3 1 2 4 6 4 4 3 3 5 8 10 9 8 6 6 7 11 11 10 8 6 7 8 8 8 8 8 9 9 10 10 7
3 5 3 3 3 3 2 2 2 1 1 1 2 0 1 1 1 0 5 5 3 2 1 2 4 6 7 7 6 4 3 5 6 8 7 8 11 12 13 12 12 11 9 8 8 8 8 9 11 11 10 10 9 9
2 5 3 3 1 1 2 2 2 2 2 1 2 2 2 2 2 3 3 3 3 1 1 4 6 7 8 9 7 6 6 6 9 10 7 11 11 11 10 11 13 13 11 10 9 9 9 11 11 10 10 10 10 9
5 6 3 3 1 2 1 1 0 0 1 1 1 2 2 2 3 4 4 5 3 2 2 4 7 10 10 10 8 7 7 8 9 9 10 12 12 10 11 11 11 11 11 11 11 11 12 12 13 13 12 12 11 11
2 3 2 3 2 2 1 1 0 0 1 1 2 2 3 2 2 2 2 5 2 2 3 5 8 10 10 11 7 5 7 9 11 13 14 13 12 13 14 13 13 13 13 13 13 13 13 14 14 14 14 13 13 13
Wind_Direction
281 295 302 310 314 319 329 335 340 346 351 354 358 3 358 356 2 13 47 31 18 300 267 225 220 204 169 220 254 11 250 139 306 191 251 229 244 252 266 249 262 232 204 202 208 221 242 7 321 301 357 321 315 319
262 280 298 300 310 318 325 333 337 342 348 352 351 354 350 349 353 1 21 353 337 240 298 252 251 253 249 204 141 163 357 298 340 271 219 274 257 261 301 244 179 238 258 260 249 192 71 32 65 19 340 315 327 318
256 259 282 290 301 313 324 329 334 339 344 346 344 346 341 341 341 343 335 335 327 310 290 289 246 270 236 240 242 272 215 275 215 342 318 283 263 251 248 230 302 222 344 256 285 136 333 284 136 1 341 323 321 321
247 254 279 285 296 308 320 326 329 332 335 337 335 336 331 338 336 323 310 301 290 321 301 282 294 280 281 255 208 218 247 134 76 299 279 258 256 205 263 312 275 299 320 290 272 281 327 151 2 345 329 325 332 332
232 245 255 275 291 305 320 320 323 326 327 327 326 318 322 325 330 321 310 267 226 310 316 301 306 236 189 209 219 227 231 241 247 242 229 234 245 255 251 272 260 239 259 236 278 85 326 295 317 326 326 337 337 332
217 247 266 282 294 307 312 318 322 323 322 320 313 301 314 310 315 325 167 45 196 211 295 304 296 245 268 214 229 221 220 226 224 217 229 228 228 225 248 252 247 238 258 253 274 327 314 297 307 347 339 339 340 350
227 233 261 282 298 305 316 321 322 323 324 323 312 284 282 292 325 284 22 133 133 352 288 295 290 270 315 294 263 227 190 199 212 226 228 234 210 211 245 250 239 228 263 276 292 318 306 320 316 324 328 329 333 28
209 234 261 289 298 319 325 327 327 328 325 318 299 265 264 284 284 296 53 249 234 271 282 287 291 315 7 288 277 109 231 209 214 241 232 226 229 226 244 243 248 250 262 273 280 285 267 286 305 314 336 327 326 337
198 240 282 304 317 321 328 331 336 340 323 310 306 304 131 78 163 56 68 118 159 238 298 268 275 313 9 288 316 286 268 246 200 236 229 221 220 225 237 241 237 239 242 253 256 277 293 298 291 306 326 316 316 335
202 252 290 312 321 329 333 336 342 342 339 338 108 281 135 25 101 124 309 220 174 197 214 251 209 242 217 264 345 292 235 245 239 221 167 228 241 243 242 236 231 226 230 236 237 267 277 290 314 327 326 332 303 304
206 263 306 319 326 330 332 329 335 339 338 15 32 37 329 155 246 348 312 273 156 249 213 240 236 257 171 188 237 224 281 270 267 121 251 240 246 258 286 246 231 232 237 239 239 242 267 282 312 322 316 331 328 310
234 289 317 321 324 326 324 324 331 346 48 353 290 303 316 221 183 321 310 255 237 274 229 237 282 218 171 135 226 229 257 246 251 279 238 260 253 300 308 292 281 242 238 241 237 239 253 276 272 267 279 294 315 307
281 310 316 322 325 326 325 334 338 338 316 76 234 217 36 32 322 36 9 314 289 257 269 319 321 149 158 224 248 273 262 257 351 285 259 255 283 269 270 273 276 272 235 232 232 233 263 275 274 256 255 273 305 288
304 312 315 317 316 335 346 340 342 348 3 297 85 1 318 79 297 330 285 310 310 275 305 317 293 256 142 212 300 275 289 309 312 283 277 295 308 310 307 239 215 209 197 208 219 227 247 259 253 249 252 278 282 282
316 317 318 139 9 342 328 309 301 339 56 78 211 35 223 334 295 309 317 303 302 289 312 303 263 249 172 249 226 285 320 320 343 301 278 307 316 358 31 53 97 144 169 176 188 209 228 244 259 272 265 260 261 278
321 324 179 225 321 317 292 219 192 155 139 208 207 290 299 299 338 319 308 293 322 317 308 230 274 270 266 231 285 12 336 342 308 302 330 355 3 8 17 44 57 67 74 69 61 53 47 32 260 342 20 23 13 350
324 226 264 307 312 277 167 162 161 212 274 225 84 254 266 255 259 297 306 293 321 311 347 317 347 355 311 15 22 359 357 347 318 349 0 5 9 9 12 23 34 40 48 45 41 37 49 57 56 60 45 28 34 48
266 298 306 291 180 159 184 212 272 281 290 70 327 347 276 252 283 304 311 309 323 319 321 34 313 16 21 9 5 356 272 315 305 318 354 7 10 6 17 25 24 29 39 42 36 39 39 34 31 13 1 19 43 26
317 310 270 147 115 92 257 132 265 354 357 338 320 314 310 286 272 293 323 346 221 311 323 18 38 7 3 333 307 312 325 342 318 319 320 356 358 0 23 0 4 10 25 26 30 28 29 29 27 10 2 13 43 35
82 96 87 56 43 8 182 108 320 297 351 353 302 326 309 280 307 318 15 20 24 54 38 35 355 300 272 266 266 283 287 300 310 349 23 24 15 14 17 9 360 3 16 16 17 19 20 21 15 11 5 16 33 40
143 116 32 7 347 42 36 347 65 353 311 294 320 323 304 321 343 351 352 346 37 72 148 224 239 244 245 254 269 291 317 331 354 11 353 1 13 23 14 6 4 17 18 12 6 2 14 2 349 358 355 3 10 32
188 175 359 343 25 0 22 103 312 322 268 307 293 314 272 277 302 338 322 16 341 260 228 240 249 274 292 295 312 317 303 329 72 78 42 24 15 7 10 7 4 6 11 7 357 350 347 347 344 337 348 353 5 23
159 169 56 30 203 53 143 237 249 203 271 306 280 249 223 233 220 343 269 243 279 261 268 280 289 292 285 300 317 321 338 358 58 48 35 23 20 13 3 6 9 6 357 358 350 345 347 357 8 16 24 30 32 34
171 226 255 288 168 243 174 236 257 250 253 247 242 254 217 208 158 195 209 241 257 305 303 311 305 310 271 264 350 5 360 22 81 57 27 15 11 8 2 1 6 6 356 343 348 349 355 5 16 30 34 40 41 40
290 194 173 265 210 239 223 211 213 227 249 209 235 231 199 170 194 214 221 243 311 330 344 351 2 351 349 341 351 19 28 14 10 23 23 16 5 3 7 6 10 13 3 357 358 355 354 9 26 34 38 38 38 38
281 192 165 205 186 213 199 224 208 219 221 230 228 208 167 186 188 158 123 254 268 300 344 334 333 334 360 15 351 8 0 349 321 337 5 360 5 2 352 346 351 3 2 360 351 355 2 14 26 29 37 39 39 41
248 225 201 221 259 233 252 243 250 244 245 224 207 169 167 229 96 168 258 248 258 241 216 296 285 307 328 348 358 7 2 6 353 334 320 344 327 336 356 342 334 334 343 350 357 359 1 357 13 24 29 38 39 36
249 268 224 167 212 223 274 264 219 234 327 357 276 184 47 96 205 211 224 225 231 164 106 49 5 318 305 318 341 351 344 345 341 344 338 359 17 341 349 341 330 329 348 351 0 2 2 0 356 351 343 337 340 357
235 218 210 231 222 220 227 250 5 112 146 170 156 190 185 229 246 267 337 184 160 145 92 356 349 351 330 294 305 360 360 352 344 336 331 327 333 347 345 340 336 328 315 323 341 354 349 347 341 335 337 334 323 305
241 193 214 233 227 226 160 189 150 133 141 106 96 102 187 225 325 165 134 151 172 147 61 335 331 340 338 329 312 316 342 355 349 327 319 318 313 317 323 326 330 331 319 308 307 317 337 342 338 335 336 340 347 335
173 185 246 230 275 44 111 131 136 146 132 146 193 182 131 117 113 141 182 183 158 120 350 347 346 342 330 331 313 298 316 336 337 339 325 323 313 307 315 323 325 326 323 316 311 307 320 325 326 320 318 317 319 323
190 203 212 203 183 159 156 217 164 133 130 210 144 124 148 175 212 190 201 185 203 263 300 314 324 330 329 316 305 269 282 304 316 320 328 323 312 306 310 312 314 317 320 317 311 307 314 319 321 322 320 314 308 306
163 173 140 133 147 168 194 213 184 131 216 221 225 209 203 240 285 127 197 197 244 294 310 321 322 321 318 317 300 278 295 303 313 314 319 316 310 308 310 307 304 302 300 299 299 297 298 302 305 309 310 310 308 307